Location: Cieszkowy
(50.3290°N, 20.5336°E)
Time: 22:54:52
(UTC+00:00)

Cosmos 2341 Rocket - Pass Details

Date: 15 June 2024
Orbit: 969 x 1003 km, 82.9° (Epoch: 18 July)

Event Time Altitude Azimuth Distance (km) Brightness Sun altitude
Exits shadow 00:28:15 16° 200° (SSW) 2,269 5.3 -12.4°
Maximum altitude 00:33:14 70° 282° (WNW) 1,031 4.1 -12.1°
Drops below altitude 10° 00:39:28 10° 6° (N) 2,730 7.5 -11.6°
Sets 00:42:01 0° 9° (N) 3,684 8.5 -11.4°
